{"data":{"norad_id":51140,"intl_designator":"2022-005AN","name":"STARLINK-3175","alt_names":[],"object_type":"PAYLOAD","status":"ACTIVE","operator":null,"country":"US","launch_date":"2022-01-19","launch_site_code":"AFETR","launch_vehicle":null,"mission":null,"orbit_class":"UNKNOWN","rcs_meters":null,"size_class":null,"mass_kg":null,"dimensions":null,"purposes":["comms"],"wikipedia_slug":null,"has_3d_model":false,"image_url":null,"decayed_at":null,"tle_current":{"epoch":"2026-09-19T22:24:21.572064Z","epoch_age_seconds":98905,"freshness":"FRESH","line1":"1 51140U 22005AN  26262.93358301  .00000729  00000+0  35261-4 0  9998","line2":"2 51140  53.1592 132.4266 0001259  93.6810 266.4335 15.31703737258265","mean_motion":15.31703737,"eccentricity":0.0001259,"inclination_deg":53.1592,"raan_deg":132.4266,"arg_perigee_deg":93.681,"mean_anomaly_deg":266.4335,"bstar":3.5261e-5,"rev_number":25826,"period_min":94.01295859083,"perigee_km":469.86658323455,"apogee_km":471.59112765695,"semimajor_km":6848.8658554458,"source":"CELESTRAK","updated_at":"2026-09-20T09:00:39.590903Z"}}}